TimeCDT,TemperatureF,Dew PointF,Humidity,Sea Level PressureIn,VisibilityMPH,Wind Direction,Wind SpeedMPH,Gust SpeedMPH,PrecipitationIn,Events,Conditions,WindDirDegrees,DateUTC
12:54 AM,36.0,33.1,89,29.90,10.0,SE,4.6,-,N/A,,Clear,140,2012-10-16 05:54:00
1:54 AM,37.9,34.0,86,29.89,10.0,SSE,4.6,-,N/A,,Mostly Cloudy,150,2012-10-16 06:54:00
2:54 AM,37.9,35.1,89,29.88,10.0,SE,3.5,-,N/A,,Overcast,140,2012-10-16 07:54:00
3:54 AM,37.9,35.1,89,29.86,10.0,SE,3.5,-,N/A,,Overcast,130,2012-10-16 08:54:00
4:54 AM,37.9,35.1,89,29.86,10.0,SE,4.6,-,N/A,,Overcast,140,2012-10-16 09:54:00
5:54 AM,37.9,36.0,93,29.85,10.0,ESE,3.5,-,0.00,Rain,Light Rain,120,2012-10-16 10:54:00
6:54 AM,37.9,37.0,97,29.82,9.0,SE,4.6,-,0.00,Rain,Light Rain,140,2012-10-16 11:54:00
7:54 AM,39.0,37.0,93,29.81,6.0,SE,6.9,-,0.00,Rain,Light Rain,140,2012-10-16 12:54:00
8:54 AM,39.9,37.9,93,29.79,6.0,SE,6.9,-,0.00,Rain,Light Rain,130,2012-10-16 13:54:00
9:54 AM,41.0,39.9,96,29.78,6.0,SE,4.6,-,0.00,Rain,Light Rain,140,2012-10-16 14:54:00
10:54 AM,43.0,41.0,93,29.75,6.0,SSE,6.9,-,0.00,,Overcast,150,2012-10-16 15:54:00
11:54 AM,46.0,43.0,89,29.71,9.0,SE,10.4,-,N/A,,Overcast,130,2012-10-16 16:54:00
12:54 PM,48.9,44.1,83,29.69,10.0,SSE,5.8,-,N/A,,Overcast,160,2012-10-16 17:54:00
1:54 PM,51.1,44.1,77,29.66,10.0,Calm,Calm,-,N/A,,Overcast,0,2012-10-16 18:54:00
2:54 PM,54.0,45.0,72,29.63,10.0,ESE,5.8,-,N/A,,Overcast,120,2012-10-16 19:54:00
3:54 PM,55.9,45.0,67,29.58,10.0,SE,6.9,-,N/A,,Mostly Cloudy,130,2012-10-16 20:54:00
4:54 PM,55.0,45.0,69,29.57,10.0,SSE,10.4,18.4,N/A,,Mostly Cloudy,160,2012-10-16 21:54:00
5:54 PM,54.0,45.0,72,29.56,10.0,SSE,8.1,-,N/A,,Scattered Clouds,150,2012-10-16 22:54:00
6:54 PM,52.0,45.0,77,29.56,10.0,SE,9.2,-,N/A,,Partly Cloudy,140,2012-10-16 23:54:00
7:54 PM,51.1,46.0,83,29.56,10.0,SE,9.2,-,N/A,,Mostly Cloudy,140,2012-10-17 00:54:00
8:54 PM,51.1,46.0,83,29.56,10.0,SE,4.6,-,N/A,,Mostly Cloudy,140,2012-10-17 01:54:00
9:54 PM,51.1,46.0,83,29.55,10.0,SE,8.1,-,N/A,,Overcast,130,2012-10-17 02:54:00
10:54 PM,50.0,46.0,86,29.54,10.0,SE,5.8,-,N/A,,Clear,130,2012-10-17 03:54:00
11:54 PM,48.0,45.0,89,29.54,10.0,Calm,Calm,-,N/A,,Clear,0,2012-10-17 04:54:00